GW5840 Weather Reports


time (UTC)temp
F
wind
direction
speed
knots
gust
knots
rain 1hr
in
rain 24hr
in
rain mn
in
humidity
%
barometer
mb
20260906221545 97 55 3.5 7.8 0.00 0.00 0.00 35 1011.8
20260906221041 97 164 2.6 9.6 0.00 0.00 0.00 35 1011.8
20260906220540 98 158 5.2 7.8 0.00 0.00 0.00 34 1012.0
20260906220036 98 32 3.5 3.5 0.00 0.00 0.00 34 1012.1
20260906215535 99 104 3.5 7.8 0.00 0.00 0.00 34 1011.9
20260906215033 99 134 2.6 8.7 0.00 0.00 0.00 35 1012.0
20260906214532 98 143 5.2 6.1 0.00 0.00 0.00 35 1012.0
20260906214027 97 123 5.2 7.8 0.00 0.00 0.00 35 1012.2
20260906213526 98 172 5.2 7.8 0.00 0.00 0.00 35 1012.3
20260906213021 97 110 6.1 8.7 0.00 0.00 0.00 35 1012.2
20260906212508 98 152 7.0 9.6 0.00 0.00 0.00 35 1012.5
20260906212004 98 143 5.2 7.8 0.00 0.00 0.00 35 1012.5
20260906211504 98 151 5.2 6.1 0.00 0.00 0.00 35 1012.6
20260906211000 98 144 3.5 6.1 0.00 0.00 0.00 35 1012.7
20260906210454 97 128 7.0 7.8 0.00 0.00 0.00 35 1013.0
20260906205954 96 130 7.0 9.6 0.00 0.00 0.00 35 1012.9
20260906205450 98 81 2.6 7.0 0.00 0.00 0.00 35 1012.9
20260906204946 100 133 7.0 8.7 0.00 0.00 0.00 33 1012.7
20260906204445 100 148 1.7 6.1 0.00 0.00 0.00 34 1013.0
20260906203944 99 115 0.9 3.5 0.00 0.00 0.00 33 1013.0
20260906203440 98 105 0.9 5.2 0.00 0.00 0.00 35 1012.9
20260906202937 98 140 5.2 11.3 0.00 0.00 0.00 34 1013.1
20260906202436 98 175 5.2 8.7 0.00 0.00 0.00 35 1013.0
20260906201932 98 151 4.3 8.7 0.00 0.00 0.00 34 1013.2
20260906201426 97 161 7.0 7.8 0.00 0.00 0.00 34 1013.2
20260906200921 96 154 5.2 7.8 0.00 0.00 0.00 36 1013.2
20260906200418 98 132 2.6 6.1 0.00 0.00 0.00 34 1013.3
20260906195917 97 156 5.2 7.8 0.00 0.00 0.00 34 1013.3
20260906195414 97 142 1.7 7.0 0.00 0.00 0.00 35 1013.3
20260906194909 98 136 0.9 6.1 0.00 0.00 0.00 36 1013.5
20260906194405 97 77 1.7 8.7 0.00 0.00 0.00 35 1013.4
20260906193900 96 87 5.2 7.0 0.00 0.00 0.00 36 1013.3
20260906193355 96 148 2.6 9.6 0.00 0.00 0.00 35 1013.5
20260906192851 96 131 2.6 8.7 0.00 0.00 0.00 36 1013.6
20260906192350 97 153 1.7 2.6 0.00 0.00 0.00 35 1013.5
20260906191850 97 117 4.3 7.0 0.00 0.00 0.00 36 1013.5
20260906191344 98 133 4.3 6.1 0.00 0.00 0.00 34 1013.5
20260906190844 97 190 6.1 9.6 0.00 0.00 0.00 36 1014.0
20260906190344 96 128 5.2 7.8 0.00 0.00 0.00 36 1013.8
20260906185839 97 155 7.8 11.3 0.00 0.00 0.00 35 1013.8
20260906185337 97 149 7.0 11.3 0.00 0.00 0.00 36 1014.0
20260906184837 96 103 1.7 3.5 0.00 0.00 0.00 37 1013.7
20260906184338 96 156 3.5 9.6 0.00 0.00 0.00 37 1014.0
20260906183833 96 117 1.7 3.5 0.00 0.00 0.00 37 1014.0
20260906183330 96 104 1.7 5.2 0.00 0.00 0.00 37 1014.0
20260906182830 97 138 7.0 9.6 0.00 0.00 0.00 37 1014.0
20260906182326 96 175 4.3 6.1 0.00 0.00 0.00 36 1014.2
20260906181825 96 138 3.5 7.8 0.00 0.00 0.00 36 1014.5
20260906181322 96 132 3.5 8.7 0.00 0.00 0.00 37 1014.3
20260906180817 95 159 4.3 7.8 0.00 0.00 0.00 38 1014.3
20260906180312 96 126 3.5 7.8 0.00 0.00 0.00 38 1014.5
20260906175809 95 134 7.8 7.8 0.00 0.00 0.00 37 1014.5
20260906175306 95 161 6.1 8.7 0.00 0.00 0.00 38 1014.5
20260906174804 95 140 5.2 7.8 0.00 0.00 0.00 39 1014.7
20260906174303 95 159 5.2 8.7 0.00 0.00 0.00 39 1014.7
20260906173759 95 141 6.1 8.7 0.00 0.00 0.00 39 1014.9
20260906173254 96 116 5.2 11.3 0.00 0.00 0.00 40 1014.9
20260906172753 95 141 6.1 7.8 0.00 0.00 0.00 38 1015.0
20260906172249 93 121 4.3 7.8 0.00 0.00 0.00 43 1015.0
20260906171744 95 103 6.1 7.8 0.00 0.00 0.00 43 1015.3
20260906171239 95 144 2.6 9.6 0.00 0.00 0.00 42 1015.1
20260906170735 95 194 3.5 5.2 0.00 0.00 0.00 41 1015.4
20260906170230 94 140 3.5 3.5 0.00 0.00 0.00 43 1015.4
20260906165726 93 154 0.0 1.7 0.00 0.00 0.00 46 1015.4
20260906165221 95 154 4.3 9.6 0.00 0.00 0.00 43 1015.3
20260906164721 94 177 5.2 5.2 0.00 0.00 0.00 43 1015.4
20260906164216 93 163 1.7 6.1 0.00 0.00 0.00 45 1015.5
20260906163712 92 152 2.6 5.2 0.00 0.00 0.00 45 1015.7
20260906163208 93 104 5.2 7.8 0.00 0.00 0.00 44 1015.5
20260906162704 94 26 1.7 6.1 0.00 0.00 0.00 44 1015.3
20260906162204 93 59 3.5 7.0 0.00 0.00 0.00 43 1015.4
20260906161659 93 171 1.7 6.1 0.00 0.00 0.00 45 1015.7
20260906161158 93 60 6.1 8.7 0.00 0.00 0.00 45 1015.6
20260906160657 93 20 1.7 7.0 0.00 0.00 0.00 46 1015.7
20260906160156 92 128 2.6 7.0 0.00 0.00 0.00 47 1015.4
20260906155654 92 122 1.7 6.1 0.00 0.00 0.00 47 1015.5
20260906155149 91 57 3.5 5.2 0.00 0.00 0.00 47 1015.4
20260906154645 92 31 3.5 7.0 0.00 0.00 0.00 48 1015.4
20260906154144 92 75 2.6 5.2 0.00 0.00 0.00 49 1015.5
20260906153643 92 96 0.9 3.5 0.00 0.00 0.00 49 1015.4
20260906153138 91 108 0.9 2.6 0.00 0.00 0.00 51 1015.3
20260906152633 91 128 1.7 1.7 0.00 0.00 0.00 50 1015.6
20260906152133 91 144 1.7 2.6 0.00 0.00 0.00 52 1015.5
20260906151627 90 145 0.9 1.7 0.00 0.00 0.00 53 1015.5
20260906151124 90 172 2.6 3.5 0.00 0.00 0.00 53 1015.3
20260906150619 89 26 1.7 2.6 0.00 0.00 0.00 54 1015.4
20260906150114 89 75 1.7 2.6 0.00 0.00 0.00 54 1015.5
20260906145613 88 134 1.7 2.6 0.00 0.00 0.00 56 1015.5
20260906145107 88 134 0.9 1.7 0.00 0.00 0.00 55 1015.0
20260906144602 87 137 0.0 1.7 0.00 0.00 0.00 58 1015.1
20260906144058 87 74 0.9 2.6 0.00 0.00 0.00 58 1015.4
20260906143558 87 82 0.9 2.6 0.00 0.00 0.00 59 1015.0
20260906143055 86 124 0.9 1.7 0.00 0.00 0.00 61 1015.1
20260906142553 85 136 1.7 2.6 0.00 0.00 0.00 64 1015.1
20260906142049 84 147 1.7 2.6 0.00 0.00 0.00 66 1015.0
20260906141548 84 144 1.7 2.6 0.00 0.00 0.00 66 1015.1
20260906141043 84 148 1.7 3.5 0.00 0.00 0.00 66 1015.1
20260906140542 82 128 0.9 1.7 0.00 0.00 0.00 68 1015.4
20260906140037 82 161 2.6 3.5 0.00 0.00 0.00 68 1015.3
20260906135533 82 150 2.6 5.2 0.00 0.00 0.00 69 1015.1
20260906135030 81 151 1.7 2.6 0.00 0.00 0.00 70 1015.0
20260906134525 81 149 1.7 3.5 0.00 0.00 0.00 71 1015.3
20260906134026 81 143 2.6 3.5 0.00 0.00 0.00 71 1015.1
20260906133522 80 140 2.6 2.6 0.00 0.00 0.00 72 1015.0
20260906133017 80 132 0.9 2.6 0.00 0.00 0.00 74 1014.9
20260906132512 79 132 1.7 2.6 0.00 0.00 0.00 75 1014.9
20260906132007 78 143 3.5 3.5 0.00 0.00 0.00 76 1015.0
20260906131503 77 137 2.6 2.6 0.00 0.00 0.00 79 1014.8
20260906130958 77 132 1.7 1.7 0.00 0.00 0.00 80 1014.7
20260906130458 77 144 0.0 2.6 0.00 0.00 0.00 80 1014.8
20260906125958 76 124 2.6 2.6 0.00 0.00 0.00 81 1014.8
20260906125455 75 135 0.9 3.5 0.00 0.00 0.00 81 1014.6
20260906124955 75 134 2.6 2.6 0.00 0.00 0.00 82 1014.6
20260906124451 75 192 0.9 2.6 0.00 0.00 0.00 83 1014.6
20260906123950 74 192 1.7 1.7 0.00 0.00 0.00 84 1014.6
20260906123445 74 192 0.9 0.9 0.00 0.00 0.00 85 1014.8
20260906122944 73 192 0.0 0.0 0.00 0.00 0.00 85 1014.6
20260906122439 73 192 0.9 0.9 0.00 0.00 0.00 85 1014.5
20260906121936 73 192 0.0 0.0 0.00 0.00 0.00 85 1014.5
20260906121432 73 192 0.0 0.0 0.00 0.00 0.00 84 1014.1
20260906120929 73 192 0.9 0.9 0.00 0.00 0.00 85 1014.3
20260906120423 74 192 0.0 0.0 0.00 0.00 0.00 84 1014.0
20260906115919 74 192 0.0 0.0 0.00 0.00 0.00 84 1014.2
20260906115415 74 192 0.9 0.9 0.00 0.00 0.00 84 1014.3
20260906114914 74 192 0.0 0.0 0.00 0.00 0.00 83 1014.0
20260906114409 74 192 0.9 0.9 0.00 0.00 0.00 83 1014.0
20260906113905 74 192 0.9 0.9 0.00 0.00 0.00 84 1014.1
20260906113404 74 192 0.9 0.9 0.00 0.00 0.00 83 1014.1
20260906112900 74 192 0.0 0.0 0.00 0.00 0.00 83 1014.1
20260906112355 74 192 0.0 0.0 0.00 0.00 0.00 83 1014.1
20260906111855 74 192 0.0 0.0 0.00 0.00 0.00 82 1014.0
20260906111355 75 192 0.0 0.0 0.00 0.00 0.00 81 1013.7
20260906110850 75 192 0.0 0.0 0.00 0.00 0.00 81 1014.1
20260906110346 75 192 0.0 0.0 0.00 0.00 0.00 81 1014.1
20260906105845 75 192 0.0 0.0 0.00 0.00 0.00 80 1013.8
20260906105341 75 192 0.0 0.0 0.00 0.00 0.00 79 1013.7
20260906104836 75 192 1.7 1.7 0.00 0.00 0.00 79 1013.7
20260906104335 76 192 0.9 0.9 0.00 0.00 0.00 78 1013.7
20260906103833 75 192 0.9 0.9 0.00 0.00 0.00 79 1013.7
20260906103331 76 192 0.0 0.9 0.00 0.00 0.00 78 1013.5
20260906102828 76 192 0.0 0.0 0.00 0.00 0.00 78 1013.4
20260906102327 76 192 0.0 0.9 0.00 0.00 0.00 78 1013.6
20260906101822 76 192 0.0 0.9 0.00 0.00 0.00 78 1013.6
20260906101317 76 192 0.0 0.9 0.00 0.00 0.00 77 1013.7
20260906100813 76 192 0.9 0.9 0.00 0.00 0.00 78 1013.7
20260906100312 76 192 0.0 0.0 0.00 0.00 0.00 78 1013.6
20260906095807 76 192 0.0 0.0 0.00 0.00 0.00 77 1013.6
20260906095305 77 192 0.0 0.0 0.00 0.00 0.00 77 1013.7
20260906094801 77 192 0.0 0.9 0.00 0.00 0.00 76 1013.7
20260906094256 77 192 0.9 0.9 0.00 0.00 0.00 75 1013.4
20260906093753 77 192 1.7 0.9 0.00 0.00 0.00 76 1013.6
20260906093248 78 192 0.0 0.9 0.00 0.00 0.00 75 1013.4
20260906092744 78 192 0.9 0.9 0.00 0.00 0.00 75 1013.2
20260906092244 78 192 0.9 1.7 0.00 0.00 0.00 75 1013.1
20260906091739 78 192 0.9 2.6 0.00 0.00 0.00 74 1013.3
20260906091236 78 196 2.6 3.5 0.00 0.00 0.00 75 1013.4
20260906090732 78 196 3.5 5.2 0.00 0.00 0.00 75 1013.2
20260906090231 78 189 3.5 5.2 0.00 0.00 0.00 75 1013.1
20260906085730 78 196 3.5 3.5 0.00 0.00 0.00 76 1013.2
20260906085229 78 197 2.6 2.6 0.00 0.00 0.00 75 1013.1
20260906084725 78 197 2.6 2.6 0.00 0.00 0.00 75 1013.3
20260906084224 78 197 0.9 1.7 0.00 0.00 0.00 74 1013.4
20260906083719 78 195 1.7 2.6 0.00 0.00 0.00 75 1013.1
20260906083215 78 187 1.7 2.6 0.00 0.00 0.00 75 1013.1
20260906082710 78 188 1.7 2.6 0.00 0.00 0.00 75 1013.2
20260906082205 78 189 2.6 2.6 0.00 0.00 0.00 75 1013.1
20260906081701 78 181 0.0 1.7 0.00 0.00 0.00 75 1013.0
20260906081156 78 181 0.9 1.7 0.00 0.00 0.00 74 1013.1
20260906080653 78 180 0.9 0.9 0.00 0.00 0.00 74 1013.3
20260906080148 78 180 0.9 0.9 0.00 0.00 0.00 74 1013.3
20260906075648 79 180 0.9 0.9 0.00 0.00 0.00 73 1013.5
20260906075142 79 181 1.7 1.7 0.00 0.00 0.00 73 1013.6
20260906074638 79 176 0.9 1.7 0.00 0.00 0.00 73 1013.4
20260906074137 79 185 1.7 2.6 0.00 0.00 0.00 72 1013.5
20260906073632 79 185 1.7 1.7 0.00 0.00 0.00 73 1013.6
20260906073127 79 185 1.7 1.7 0.00 0.00 0.00 72 1013.4
20260906072622 79 186 1.7 3.5 0.00 0.00 0.00 72 1013.6
20260906072118 79 189 1.7 2.6 0.00 0.00 0.00 71 1013.4
20260906071614 80 187 1.7 3.5 0.00 0.00 0.00 71 1013.3
20260906071109 80 169 0.9 2.6 0.00 0.00 0.00 71 1013.1
20260906070606 80 175 1.7 5.2 0.00 0.00 0.00 70 1013.2
20260906070101 80 183 2.6 3.5 0.00 0.00 0.00 70 1013.3
20260906065600 80 174 1.7 1.7 0.00 0.00 0.00 70 1013.4
20260906065056 80 163 0.9 1.7 0.00 0.00 0.00 69 1013.7
20260906064552 80 155 1.7 1.7 0.00 0.00 0.00 69 1013.7
20260906064046 80 161 1.7 1.7 0.00 0.00 0.00 69 1013.7
20260906063541 80 177 1.7 1.7 0.00 0.00 0.00 68 1013.5
20260906063038 81 168 0.9 1.7 0.00 0.00 0.00 68 1013.7
20260906062533 81 169 1.7 2.6 0.00 0.00 0.00 67 1013.9
20260906062032 81 179 3.5 5.2 0.00 0.00 0.00 67 1013.7
20260906061529 81 188 3.5 3.5 0.00 0.00 0.00 67 1013.6
20260906061028 81 187 1.7 2.6 0.00 0.00 0.00 67 1013.8
20260906060525 81 183 1.7 2.6 0.00 0.00 0.00 66 1014.0
20260906060022 82 183 1.7 2.6 0.00 0.00 0.00 66 1013.9
20260906055517 82 175 1.7 1.7 0.00 0.00 0.00 66 1013.9
20260906055013 82 165 0.9 2.6 0.00 0.00 0.00 65 1013.9
20260906054512 82 165 1.7 3.5 0.00 0.00 0.00 64 1013.9
20260906054008 82 157 1.7 2.6 0.00 0.00 0.00 64 1013.8
20260906053504 82 166 0.9 1.7 0.00 0.00 0.00 64 1013.9
20260906052959 82 160 0.9 2.6 0.00 0.00 0.00 63 1014.0
20260906052455 82 149 2.6 3.5 0.00 0.00 0.00 63 1013.9
20260906051952 82 169 1.7 3.5 0.00 0.00 0.00 62 1014.0
20260906051447 83 163 1.7 2.6 0.00 0.00 0.00 62 1013.6
20260906050943 83 165 1.7 3.5 0.00 0.00 0.00 61 1013.9
20260906050442 83 151 2.6 3.5 0.00 0.00 0.00 61 1013.9
20260906045941 84 159 2.6 3.5 0.00 0.00 0.00 60 1013.9
20260906045440 84 168 1.7 3.5 0.00 0.00 0.00 60 1013.9
20260906044937 84 162 1.7 3.5 0.00 0.00 0.00 59 1013.8
20260906044432 84 169 2.6 6.1 0.00 0.00 0.00 59 1013.9
20260906043927 84 156 0.9 2.6 0.00 0.00 0.00 58 1013.9
20260906043423 85 164 1.7 2.6 0.00 0.00 0.00 57 1013.6
20260906042918 84 151 3.5 6.1 0.00 0.00 0.00 57 1013.8
20260906042417 85 161 1.7 3.5 0.00 0.00 0.00 56 1013.7
20260906041913 85 157 2.6 2.6 0.00 0.00 0.00 55 1013.7
20260906041409 85 150 2.6 5.2 0.00 0.00 0.00 55 1013.9
20260906040908 85 155 1.7 6.1 0.00 0.00 0.00 55 1013.8
20260906040404 85 156 3.5 6.1 0.00 0.00 0.00 55 1013.9
20260906035859 85 158 1.7 2.6 0.00 0.00 0.00 55 1013.7
20260906035354 85 130 3.5 3.5 0.00 0.00 0.00 54 1013.7
20260906034850 86 162 2.6 5.2 0.00 0.00 0.00 54 1013.8
20260906034350 86 142 3.5 5.2 0.00 0.00 0.00 54 1014.1
20260906033846 86 159 3.5 5.2 0.00 0.00 0.00 54 1013.6
20260906033345 86 154 2.6 2.6 0.00 0.00 0.00 53 1013.6
20260906032841 87 142 2.6 5.2 0.00 0.00 0.00 53 1013.6
20260906032337 87 149 3.5 7.0 0.00 0.00 0.00 51 1013.6
20260906031832 87 165 3.5 7.0 0.00 0.00 0.00 51 1013.5
20260906031327 87 165 3.5 5.2 0.00 0.00 0.00 50 1013.5
20260906030827 87 159 3.5 7.0 0.00 0.00 0.00 50 1013.4
20260906030322 88 166 2.6 3.5 0.00 0.00 0.00 49 1013.5
20260906025817 88 145 3.5 5.2 0.00 0.00 0.00 49 1013.7
20260906025311 88 151 2.6 6.1 0.00 0.00 0.00 49 1013.3
20260906024810 88 151 4.3 5.2 0.00 0.00 0.00 48 1013.4
20260906024309 88 150 2.6 3.5 0.00 0.00 0.00 48 1013.4
20260906023805 88 156 1.7 2.6 0.00 0.00 0.00 47 1013.2
20260906023300 88 160 0.9 5.2 0.00 0.00 0.00 46 1013.2
20260906022755 88 152 1.7 3.5 0.00 0.00 0.00 46 1013.2
20260906022251 88 153 1.7 2.6 0.00 0.00 0.00 45 1013.0
20260906021747 88 155 1.7 1.7 0.00 0.00 0.00 45 1013.2
20260906021246 88 155 2.6 3.5 0.00 0.00 0.00 45 1013.0
20260906020741 87 144 1.7 5.2 0.00 0.00 0.00 46 1012.8
20260906020240 87 137 0.0 0.0 0.00 0.00 0.00 45 1012.6
20260906015735 87 137 0.0 0.0 0.00 0.00 0.00 45 1012.7
20260906015233 87 137 0.0 0.0 0.00 0.00 0.00 45 1012.3
20260906014728 88 137 0.0 0.9 0.00 0.00 0.00 45 1012.3
20260906014224 88 137 0.9 0.9 0.00 0.00 0.00 44 1012.2
20260906013720 88 137 1.7 1.7 0.00 0.00 0.00 45 1012.5
20260906013220 88 137 0.9 0.9 0.00 0.00 0.00 44 1012.5
20260906012715 89 137 0.9 0.9 0.00 0.00 0.00 43 1012.1
20260906012215 89 137 0.0 0.9 0.00 0.00 0.00 43 1011.9
20260906011711 90 137 0.9 1.7 0.00 0.00 0.00 42 1012.1
20260906011205 90 138 0.9 1.7 0.00 0.00 0.00 41 1012.1
20260906010701 91 140 1.7 2.6 0.00 0.00 0.00 41 1011.9
20260906010157 91 142 1.7 1.7 0.00 0.00 0.00 40 1012.0
20260906005657 91 137 1.7 2.6 0.00 0.00 0.00 39 1011.7
20260906005156 92 142 2.6 3.5 0.00 0.00 0.00 39 1012.1
20260906004655 92 141 1.7 6.1 0.00 0.00 0.00 38 1012.1
20260906004150 93 140 2.6 3.5 0.00 0.00 0.00 38 1012.1
20260906003646 93 153 2.6 5.2 0.00 0.00 0.00 37 1011.9
20260906003141 93 148 2.6 6.1 0.00 0.00 0.00 37 1011.9
20260906002636 94 162 2.6 5.2 0.00 0.00 0.00 37 1011.9
20260906002131 94 148 2.6 6.1 0.00 0.00 0.00 36 1011.7
20260906001626 94 146 3.5 5.2 0.00 0.00 0.00 36 1012.0
20260906001126 95 150 2.6 7.0 0.00 0.00 0.00 36 1011.8
20260906000622 95 135 1.7 3.5 0.00 0.00 0.00 36 1011.8
20260906000117 95 148 1.7 5.2 0.00 0.00 0.00 35 1011.6
20260905235616 95 158 4.3 6.1 0.00 0.00 0.00 35 1011.7
20260905235111 95 165 2.6 5.2 0.00 0.00 0.00 35 1011.5
20260905234612 96 145 1.7 7.0 0.00 0.00 0.00 34 1011.7
20260905234108 96 156 3.5 3.5 0.00 0.00 0.00 33 1011.7
20260905233608 96 147 1.7 6.1 0.00 0.00 0.00 34 1011.7
20260905233102 96 96 1.7 3.5 0.00 0.00 0.00 33 1011.5
20260905232557 96 136 0.9 2.6 0.00 0.00 0.00 34 1011.5
20260905232053 96 128 3.5 3.5 0.00 0.00 0.00 33 1011.6
20260905231548 97 162 4.3 6.1 0.00 0.00 0.00 32 1011.5
20260905231044 97 150 2.6 7.0 0.00 0.00 0.00 32 1011.7
20260905230544 98 145 0.9 2.6 0.00 0.00 0.00 32 1011.3
20260905230043 97 60 1.7 2.6 0.00 0.00 0.00 32 1011.2
20260905225537 97 118 1.7 6.1 0.00 0.00 0.00 33 1011.7
20260905225033 98 79 1.7 6.1 0.00 0.00 0.00 32 1011.5
20260905224532 98 123 0.9 3.5 0.00 0.00 0.00 32 1011.5
20260905224032 97 136 1.7 2.6 0.00 0.00 0.00 32 1011.4
20260905223529 97 136 3.5 6.1 0.00 0.00 0.00 32 1011.6
20260905223025 98 160 3.5 7.0 0.00 0.00 0.00 32 1011.6
20260905222525 98 192 5.2 6.1 0.00 0.00 0.00 32 1011.6
20260905222020 98 141 0.9 7.0 0.00 0.00 0.00 32 1011.6